Location: Friaudour
(46.0460°N, 1.2873°E)
Time: 15:05:56
(UTC+00:00)

Spot 4 Rocket - Pass Details

Date: 02 November 2020
Orbit: 776 x 781 km, 98.7° (Epoch: 29 November)

Event Time Altitude Azimuth Distance (km) Brightness Sun altitude
Rises 03:37:32 0° 11° (N) 3,270 7.5 -31.5°
Reaches altitude 10° 03:39:52 10° 8° (N) 2,339 6.7 -31.1°
Enters shadow 03:41:30 21° 4° (N) 1,718 5.9 -30.8°
